Hourly Data Report for September 08, 2017

All times are specified in Local Standard Time (LST). Add 1 hour to adjust for Daylight Saving Time where and when it is observed.

KUGLUKTUK A
NUNAVUT

67°49'00.000" N
115°08'38.000" W
22.60 m
2300903
71938
YCO

Download Data

Hourly Data (September 2017)
Hourly Data Report for September 8, 2017
Temp Definition
°C
Dew Point Temp Definition
°C
Rel Hum Definition
%
Wind Dir Definition
10's deg

Wind Spd Definition
km/h
Visibility Definition
km
Stn Press Definition
kPa
Hmdx Definition


Wind Chill Definition


Weather Definition


TIME
00:00 Legend Double Dagger 8.6 8.3 98 4 12 4.8 98.26     Rain,Fog
01:00 Legend Double Dagger 8.6 8.4 98 6 16 4.0 98.10     Drizzle,Fog
02:00 Legend Double Dagger 8.4 8.3 99 1 8 4.0 98.16     Drizzle,Fog
03:00 Legend Double Dagger 8.2 8.2 99 36 4 1.0 98.12     Fog
04:00 Legend Double Dagger 7.6 7.6 100 26 14 0.2 98.10     Fog
05:00 Legend Double Dagger 7.3 7.3 100 25 23 2.4 98.10     Rain,Fog
06:00 Legend Double Dagger 7.0 7.0 100 26 17 2.4 98.09     Rain,Fog
07:00 Legend Double Dagger 7.1 6.9 99 28 25 8.1 98.08     Rain,Fog
08:00 Legend Double Dagger 5.8 5.5 98 34 44 6.4 98.17     Rain,Fog
09:00 Legend Double Dagger 4.3 3.9 97 35 55 4.8 98.38     Rain,Fog
10:00 Legend Double Dagger 3.2 2.5 95 36 52 9.7 98.62     Rain,Fog
11:00 Legend Double Dagger 2.1 1.5 96 36 45 6.4 98.87     Rain,Fog
12:00 Legend Double Dagger 1.2 1.0 98 36 41 4.8 99.09     Rain,Snow,Fog
13:00 Legend Double Dagger 1.1 0.7 97 1 46 3.2 99.29     Rain,Snow,Fog
14:00 Legend Double Dagger 1.0 0.4 96 36 45 4.0 99.52     Rain,Snow,Fog
15:00 Legend Double Dagger 0.7 0.0 95 1 46 3.6 99.75     Snow,Fog
16:00 Legend Double Dagger 0.8 0.1 95 2 35 3.2 99.99     Snow,Fog
17:00 Legend Double Dagger 0.4 -0.9 91 1 36 3.2 100.21     Snow,Fog
18:00 Legend Double Dagger -0.1 -1.1 93 1 37 3.2 100.38   -7 Snow,Fog
19:00 Legend Double Dagger 0.2 -1.0 92 1 32 8.1 100.49     Snow,Fog
20:00 Legend Double Dagger 0.0 -1.3 91 2 24 8.1 100.63   -6 Snow Showers,Fog
21:00 Legend Double Dagger 0.0 -1.3 91 3 17 8.1 100.70   -5 Snow Showers,Fog
22:00 Legend Double Dagger 0.4 -1.1 90 2 21 11.3 100.78     Snow Showers
23:00 Legend Double Dagger 0.2 -1.0 92 2 15 3.2 100.89     Snow Showers

Notes on Data Quality.

Legend

  • E = Estimated
  • M = Missing
  • NA = Not Available
  • ‡ = Partner data that is not subject to review by the National Climate Archives
Date modified: